| time (UTC) | temp F | wind direction | speed MPH | gust MPH | rain 1hr in | rain 24hr in | rain mn in | humidity % | barometer mb |
| 20260509123750 | 49 | 67 | 0.0 | 0.0 | 0.07 | 0.06 | 0.06 | 99 | 1007.7 |
| 20260509123247 | 48 | 110 | 1.0 | 1.0 | 0.00 | 0.05 | 0.05 | 99 | 1007.7 |
| 20260509122742 | 49 | 47 | 1.0 | 1.0 | 0.00 | 0.05 | 0.05 | 98 | 1007.6 |
| 20260509122239 | 49 | 69 | 0.0 | 0.0 | 0.00 | 0.05 | 0.05 | 98 | 1007.6 |
| 20260509121736 | 48 | 41 | 1.0 | 2.0 | 0.05 | 0.05 | 0.05 | 98 | 1007.6 |
| 20260509121233 | 48 | 22 | 3.0 | 3.0 | 0.05 | 0.05 | 0.05 | 98 | 1007.6 |
| 20260509120732 | 48 | 336 | 2.0 | 3.0 | 0.00 | 0.04 | 0.04 | 98 | 1007.8 |
| 20260509120229 | 48 | 38 | 1.0 | 1.0 | 0.00 | 0.04 | 0.04 | 98 | 1007.7 |
| 20260509115727 | 48 | 357 | 2.0 | 2.0 | 0.00 | 0.04 | 0.04 | 97 | 1007.7 |
| 20260509115224 | 48 | 354 | 6.0 | 8.0 | 0.00 | 0.04 | 0.04 | 98 | 1007.6 |
| 20260509114722 | 48 | 42 | 2.0 | 2.0 | 0.00 | 0.04 | 0.04 | 98 | 1007.7 |
| 20260509114220 | 48 | 45 | 1.0 | 1.0 | 0.00 | 0.04 | 0.04 | 98 | 1007.7 |
| 20260509113719 | 48 | 104 | 2.0 | 3.0 | 0.00 | 0.04 | 0.04 | 98 | 1007.6 |
| 20260509113216 | 48 | 96 | 2.0 | 2.0 | 0.00 | 0.04 | 0.04 | 98 | 1007.7 |
| 20260509112712 | 48 | 242 | 2.0 | 2.0 | 0.00 | 0.04 | 0.04 | 98 | 1007.8 |
| 20260509112209 | 48 | 35 | 1.0 | 1.0 | 0.07 | 0.04 | 0.04 | 98 | 1007.6 |
| 20260509111706 | 48 | 63 | 0.0 | 0.0 | 0.07 | 0.04 | 0.04 | 97 | 1007.9 |
| 20260509111203 | 48 | 67 | 3.0 | 3.0 | 0.00 | 0.03 | 0.03 | 98 | 1007.8 |
| 20260509110700 | 48 | 48 | 1.0 | 1.0 | 0.00 | 0.03 | 0.03 | 98 | 1007.7 |
| 20260509110157 | 48 | 313 | 1.0 | 2.0 | 0.00 | 0.03 | 0.03 | 97 | 1007.6 |
| 20260509105655 | 48 | 41 | 1.0 | 1.0 | 0.00 | 0.03 | 0.03 | 96 | 1007.6 |
| 20260509105152 | 48 | 32 | 2.0 | 2.0 | 0.00 | 0.03 | 0.03 | 96 | 1007.8 |
| 20260509104649 | 48 | 6 | 2.0 | 2.0 | 0.00 | 0.03 | 0.03 | 97 | 1007.7 |
| 20260509104146 | 47 | 48 | 1.0 | 1.0 | 0.00 | 0.03 | 0.03 | 97 | 1007.8 |
| 20260509103644 | 47 | 76 | 3.0 | 3.0 | 0.00 | 0.03 | 0.03 | 97 | 1007.8 |
| 20260509103142 | 48 | 12 | 2.0 | 2.0 | 0.00 | 0.03 | 0.03 | 96 | 1007.7 |
| 20260509102639 | 48 | 47 | 1.0 | 2.0 | 0.05 | 0.03 | 0.03 | 96 | 1007.9 |
| 20260509102136 | 48 | 306 | 1.0 | 2.0 | 0.05 | 0.03 | 0.03 | 95 | 1007.8 |
| 20260509101632 | 47 | 323 | 2.0 | 3.0 | 0.05 | 0.03 | 0.03 | 96 | 1007.9 |
| 20260509101129 | 47 | 344 | 1.0 | 2.0 | 0.00 | 0.02 | 0.02 | 97 | 1008.0 |
| 20260509100626 | 47 | 67 | 1.0 | 1.0 | 0.00 | 0.02 | 0.02 | 96 | 1008.0 |
| 20260509100124 | 47 | 57 | 0.0 | 1.0 | 0.00 | 0.02 | 0.02 | 97 | 1008.0 |
| 20260509095620 | 47 | 67 | 0.0 | 1.0 | 0.00 | 0.02 | 0.02 | 96 | 1007.9 |
| 20260509095118 | 47 | 16 | 2.0 | 2.0 | 0.00 | 0.02 | 0.02 | 96 | 1007.9 |
| 20260509094613 | 46 | 40 | 1.0 | 2.0 | 0.07 | 0.02 | 0.02 | 98 | 1007.9 |
| 20260509094111 | 46 | 26 | 1.0 | 1.0 | 0.07 | 0.02 | 0.02 | 99 | 1007.9 |
| 20260509093610 | 45 | 306 | 3.0 | 3.0 | 0.00 | 0.01 | 0.01 | 99 | 1007.9 |
| 20260509093106 | 45 | 17 | 2.0 | 2.0 | 0.00 | 0.01 | 0.01 | 99 | 1007.9 |
| 20260509092604 | 45 | 45 | 0.0 | 0.0 | 0.00 | 0.01 | 0.01 | 99 | 1007.8 |
| 20260509092102 | 45 | 44 | 0.0 | 0.0 | 0.00 | 0.01 | 0.01 | 99 | 1007.8 |
| 20260509091600 | 45 | 62 | 0.0 | 0.0 | 0.00 | 0.01 | 0.01 | 99 | 1007.8 |
| 20260509091056 | 45 | 24 | 1.0 | 1.0 | 0.00 | 0.01 | 0.01 | 99 | 1007.4 |
| 20260509090553 | 45 | 32 | 1.0 | 1.0 | 0.00 | 0.01 | 0.01 | 99 | 1007.8 |
| 20260509090051 | 45 | 58 | 0.0 | 1.0 | 0.00 | 0.01 | 0.01 | 99 | 1007.5 |
| 20260509085548 | 45 | 76 | 1.0 | 1.0 | 0.00 | 0.01 | 0.01 | 99 | 1007.7 |
| 20260509085044 | 45 | 62 | 0.0 | 0.0 | 0.00 | 0.01 | 0.01 | 99 | 1007.8 |
| 20260509084541 | 45 | 63 | 0.0 | 0.0 | 0.00 | 0.01 | 0.01 | 99 | 1007.6 |
| 20260509084038 | 45 | 61 | 0.0 | 0.0 | 0.00 | 0.01 | 0.01 | 99 | 1007.7 |
| 20260509083536 | 45 | 61 | 0.0 | 0.0 | 0.00 | 0.01 | 0.01 | 99 | 1007.7 |
| 20260509083032 | 45 | 61 | 0.0 | 0.0 | 0.00 | 0.01 | 0.01 | 99 | 1007.6 |
| 20260509082530 | 45 | 61 | 0.0 | 1.0 | 0.00 | 0.01 | 0.01 | 99 | 1007.7 |
| 20260509082027 | 45 | 62 | 0.0 | 0.0 | 0.00 | 0.01 | 0.01 | 99 | 1007.3 |
| 20260509081524 | 45 | 62 | 0.0 | 0.0 | 0.00 | 0.01 | 0.01 | 99 | 1007.4 |
| 20260509081020 | 45 | 62 | 0.0 | 0.0 | 0.00 | 0.01 | 0.01 | 99 | 1007.6 |
| 20260509080519 | 44 | 62 | 0.0 | 0.0 | 0.00 | 0.01 | 0.01 | 99 | 1007.5 |
| 20260509080016 | 44 | 62 | 0.0 | 0.0 | 0.00 | 0.01 | 0.01 | 99 | 1007.5 |
| 20260509075513 | 44 | 62 | 0.0 | 0.0 | 0.00 | 0.01 | 0.01 | 99 | 1007.5 |
| 20260509075011 | 44 | 62 | 0.0 | 0.0 | 0.00 | 0.01 | 0.01 | 99 | 1007.5 |
| 20260509074508 | 44 | 63 | 0.0 | 0.0 | 0.00 | 0.01 | 0.01 | 99 | 1007.6 |
| 20260509074005 | 44 | 63 | 0.0 | 0.0 | 0.00 | 0.01 | 0.01 | 99 | 1007.4 |
| 20260509073501 | 44 | 63 | 0.0 | 0.0 | 0.00 | 0.01 | 0.01 | 99 | 1007.6 |
| 20260509072957 | 44 | 63 | 0.0 | 0.0 | 0.00 | 0.01 | 0.01 | 99 | 1007.5 |
| 20260509072455 | 44 | 63 | 0.0 | 0.0 | 0.00 | 0.01 | 0.01 | 99 | 1007.6 |
| 20260509071951 | 44 | 63 | 0.0 | 0.0 | 0.00 | 0.01 | 0.01 | 99 | 1007.7 |
| 20260509071447 | 44 | 63 | 0.0 | 0.0 | 0.00 | 0.01 | 0.01 | 99 | 1007.7 |
| 20260509070946 | 44 | 63 | 0.0 | 0.0 | 0.00 | 0.01 | 0.01 | 99 | 1007.7 |
| 20260509070442 | 44 | 63 | 0.0 | 0.0 | 0.00 | 0.01 | 0.01 | 99 | 1007.7 |
| 20260509065937 | 45 | 63 | 0.0 | 0.0 | 0.00 | 0.01 | 0.01 | 99 | 1007.8 |
| 20260509065434 | 45 | 63 | 0.0 | 0.0 | 0.00 | 0.01 | 0.01 | 99 | 1007.8 |
| 20260509064930 | 45 | 63 | 0.0 | 0.0 | 0.00 | 0.01 | 0.01 | 99 | 1007.9 |
| 20260509064428 | 45 | 69 | 0.0 | 0.0 | 0.00 | 0.01 | 0.01 | 99 | 1008.4 |
| 20260509063926 | 45 | 60 | 0.0 | 0.0 | 0.00 | 0.01 | 0.01 | 99 | 1008.4 |
| 20260509063421 | 45 | 59 | 0.0 | 0.0 | 0.00 | 0.01 | 0.01 | 99 | 1008.6 |
| 20260509062919 | 45 | 59 | 0.0 | 0.0 | 0.00 | 0.01 | 0.01 | 99 | 1008.5 |
| 20260509062416 | 45 | 59 | 0.0 | 0.0 | 0.00 | 0.01 | 0.01 | 99 | 1008.4 |
| 20260509061913 | 45 | 59 | 0.0 | 0.0 | 0.00 | 0.01 | 0.01 | 99 | 1008.5 |
| 20260509061411 | 45 | 59 | 0.0 | 0.0 | 0.00 | 0.01 | 0.01 | 99 | 1008.5 |
| 20260509060907 | 45 | 59 | 0.0 | 0.0 | 0.00 | 0.01 | 0.01 | 99 | 1008.5 |
| 20260509060405 | 45 | 59 | 0.0 | 0.0 | 0.00 | 0.01 | 0.01 | 99 | 1008.7 |
| 20260509055859 | 45 | 60 | 0.0 | 0.0 | 0.00 | 0.01 | 0.01 | 99 | 1008.8 |
| 20260509055355 | 45 | 60 | 0.0 | 0.0 | 0.00 | 0.01 | 0.01 | 99 | 1008.9 |
| 20260509054853 | 45 | 52 | 0.0 | 0.0 | 0.00 | 0.01 | 0.01 | 99 | 1009.1 |
| 20260509054349 | 45 | 52 | 0.0 | 0.0 | 0.00 | 0.01 | 0.01 | 99 | 1009.2 |
| 20260509053848 | 45 | 52 | 0.0 | 0.0 | 0.00 | 0.01 | 0.01 | 99 | 1009.2 |
| 20260509053345 | 45 | 52 | 0.0 | 0.0 | 0.00 | 0.01 | 0.01 | 99 | 1009.2 |
| 20260509052843 | 45 | 52 | 0.0 | 0.0 | 0.00 | 0.01 | 0.01 | 99 | 1009.2 |
| 20260509052340 | 45 | 52 | 0.0 | 0.0 | 0.00 | 0.01 | 0.01 | 99 | 1009.0 |
| 20260509051838 | 45 | 54 | 0.0 | 0.0 | 0.00 | 0.01 | 0.01 | 99 | 1009.4 |
| 20260509051336 | 45 | 54 | 0.0 | 0.0 | 0.00 | 0.01 | 0.01 | 99 | 1009.1 |
| 20260509050832 | 45 | 52 | 0.0 | 0.0 | 0.00 | 0.01 | 0.01 | 99 | 1009.2 |
| 20260509050329 | 45 | 52 | 0.0 | 0.0 | 0.00 | 0.01 | 0.01 | 99 | 1009.3 |
| 20260509045826 | 45 | 52 | 0.0 | 0.0 | 0.00 | 0.01 | 0.01 | 99 | 1009.3 |
| 20260509045322 | 45 | 52 | 0.0 | 0.0 | 0.00 | 0.01 | 0.01 | 99 | 1009.6 |
| 20260509044820 | 45 | 52 | 0.0 | 0.0 | 0.00 | 0.01 | 0.01 | 99 | 1009.6 |
| 20260509044317 | 45 | 53 | 0.0 | 0.0 | 0.00 | 0.01 | 0.01 | 99 | 1009.6 |
| 20260509043814 | 46 | 53 | 0.0 | 0.0 | 0.00 | 0.01 | 0.01 | 99 | 1009.7 |
| 20260509043310 | 46 | 53 | 0.0 | 0.0 | 0.00 | 0.01 | 0.01 | 99 | 1009.7 |
| 20260509042806 | 46 | 53 | 0.0 | 0.0 | 0.07 | 0.01 | 0.01 | 99 | 1009.7 |
| 20260509042306 | 46 | 53 | 0.0 | 0.0 | 0.07 | 0.01 | 0.01 | 99 | 1009.8 |
| 20260509041759 | 46 | 53 | 0.0 | 0.0 | 0.07 | 0.01 | 0.01 | 99 | 1009.8 |
| 20260509041256 | 46 | 55 | 0.0 | 0.0 | 0.00 | 0.00 | 0.00 | 99 | 1010.0 |
| 20260509040754 | 46 | 53 | 0.0 | 0.0 | 0.00 | 0.00 | 0.00 | 99 | 1010.2 |
| 20260509040251 | 46 | 53 | 0.0 | 0.0 | 0.00 | 0.00 | 0.00 | 99 | 1010.0 |
| 20260509035748 | 46 | 53 | 0.0 | 0.0 | 0.00 | 0.01 | 0.01 | 99 | 1010.4 |
| 20260509035245 | 46 | 53 | 0.0 | 0.0 | 0.00 | 0.01 | 0.01 | 99 | 1010.2 |
| 20260509034742 | 46 | 53 | 0.0 | 0.0 | 0.00 | 0.01 | 0.01 | 99 | 1010.2 |
| 20260509034239 | 46 | 53 | 0.0 | 0.0 | 0.00 | 0.01 | 0.01 | 99 | 1010.4 |
| 20260509033736 | 46 | 53 | 0.0 | 0.0 | 0.00 | 0.01 | 0.01 | 99 | 1010.0 |
| 20260509033233 | 46 | 53 | 0.0 | 0.0 | 0.00 | 0.01 | 0.01 | 99 | 1010.0 |
| 20260509032730 | 46 | 53 | 0.0 | 0.0 | 0.00 | 0.01 | 0.01 | 99 | 1010.2 |
| 20260509032227 | 46 | 53 | 0.0 | 0.0 | 0.00 | 0.01 | 0.01 | 99 | 1010.3 |
| 20260509031725 | 46 | 53 | 0.0 | 0.0 | 0.00 | 0.01 | 0.01 | 99 | 1010.3 |
| 20260509031222 | 46 | 53 | 0.0 | 0.0 | 0.00 | 0.01 | 0.01 | 99 | 1010.5 |
| 20260509030720 | 46 | 53 | 0.0 | 0.0 | 0.00 | 0.01 | 0.01 | 98 | 1010.3 |
| 20260509030217 | 46 | 55 | 0.0 | 0.0 | 0.00 | 0.01 | 0.01 | 98 | 1010.4 |
| 20260509025713 | 46 | 52 | 0.0 | 0.0 | 0.05 | 0.01 | 0.01 | 98 | 1010.3 |
| 20260509025209 | 46 | 44 | 0.0 | 0.0 | 0.05 | 0.01 | 0.01 | 97 | 1010.3 |
| 20260509024705 | 46 | 44 | 0.0 | 0.0 | 0.00 | 0.00 | 0.00 | 97 | 1010.4 |
| 20260509024201 | 46 | 44 | 0.0 | 0.0 | 0.00 | 0.00 | 0.00 | 97 | 1010.3 |
| 20260509023659 | 46 | 42 | 0.0 | 0.0 | 0.00 | 0.00 | 0.00 | 96 | 1010.2 |
| 20260509023156 | 46 | 77 | 0.0 | 0.0 | 0.00 | 0.00 | 0.00 | 96 | 1009.9 |
| 20260509022652 | 47 | 77 | 0.0 | 0.0 | 0.00 | 0.00 | 0.00 | 96 | 1010.3 |
| 20260509022150 | 47 | 77 | 0.0 | 0.0 | 0.00 | 0.00 | 0.00 | 96 | 1010.0 |
| 20260509021646 | 47 | 77 | 0.0 | 0.0 | 0.00 | 0.00 | 0.00 | 96 | 1009.9 |
| 20260509021143 | 46 | 78 | 0.0 | 0.0 | 0.00 | 0.00 | 0.00 | 95 | 1009.9 |
| 20260509020642 | 47 | 78 | 0.0 | 0.0 | 0.00 | 0.00 | 0.00 | 95 | 1010.0 |
| 20260509020138 | 46 | 78 | 0.0 | 0.0 | 0.00 | 0.00 | 0.00 | 95 | 1010.0 |
| 20260509015637 | 46 | 78 | 0.0 | 0.0 | 0.00 | 0.00 | 0.00 | 95 | 1009.8 |
| 20260509015134 | 46 | 80 | 0.0 | 0.0 | 0.00 | 0.00 | 0.00 | 95 | 1009.9 |
| 20260509014631 | 46 | 78 | 0.0 | 1.0 | 0.00 | 0.00 | 0.00 | 96 | 1009.8 |
| 20260509014127 | 46 | 48 | 0.0 | 1.0 | 0.00 | 0.00 | 0.00 | 96 | 1009.7 |
| 20260509013624 | 47 | 51 | 0.0 | 0.0 | 0.00 | 0.00 | 0.00 | 96 | 1009.8 |
| 20260509013120 | 47 | 68 | 0.0 | 1.0 | 0.00 | 0.00 | 0.00 | 96 | 1009.4 |
| 20260509012617 | 47 | 71 | 1.0 | 1.0 | 0.00 | 0.00 | 0.00 | 95 | 1009.5 |
| 20260509012113 | 47 | 70 | 1.0 | 1.0 | 0.00 | 0.00 | 0.00 | 95 | 1009.7 |
| 20260509011612 | 47 | 70 | 0.0 | 0.0 | 0.00 | 0.00 | 0.00 | 96 | 1009.7 |
| 20260509011108 | 47 | 70 | 0.0 | 0.0 | 0.00 | 0.00 | 0.00 | 95 | 1009.6 |
| 20260509010606 | 47 | 70 | 0.0 | 0.0 | 0.00 | 0.00 | 0.00 | 95 | 1009.5 |
| 20260509005600 | 47 | 55 | 1.0 | 1.0 | 0.00 | 0.00 | 0.00 | 94 | 1009.7 |
| 20260509005055 | 47 | 38 | 0.0 | 0.0 | 0.00 | 0.00 | 0.00 | 93 | 1009.8 |
| 20260509004553 | 47 | 59 | 0.0 | 0.0 | 0.00 | 0.00 | 0.00 | 93 | 1010.0 |
| 20260509004049 | 47 | 59 | 0.0 | 1.0 | 0.00 | 0.00 | 0.00 | 94 | 1009.6 |
| 20260509003548 | 47 | 59 | 0.0 | 0.0 | 0.00 | 0.00 | 0.00 | 94 | 1009.7 |
| 20260509003044 | 47 | 59 | 0.0 | 0.0 | 0.00 | 0.00 | 0.00 | 94 | 1009.3 |
| 20260509002542 | 47 | 59 | 0.0 | 1.0 | 0.00 | 0.00 | 0.00 | 94 | 1009.4 |
| 20260509002040 | 47 | 56 | 0.0 | 0.0 | 0.00 | 0.00 | 0.00 | 94 | 1009.4 |
| 20260509001537 | 47 | 55 | 0.0 | 0.0 | 0.00 | 0.00 | 0.00 | 94 | 1009.3 |
| 20260509001032 | 47 | 60 | 0.0 | 0.0 | 0.00 | 0.00 | 0.00 | 94 | 1009.4 |
| 20260509000531 | 47 | 60 | 0.0 | 0.0 | 0.00 | 0.00 | 0.00 | 93 | 1009.6 |
| 20260509000027 | 48 | 60 | 1.0 | 1.0 | 0.00 | 0.00 | 0.00 | 92 | 1009.4 |
| 20260508235525 | 48 | 46 | 0.0 | 0.0 | 0.00 | 0.00 | 0.00 | 92 | 1009.3 |
| 20260508235020 | 48 | 35 | 0.0 | 1.0 | 0.00 | 0.00 | 0.00 | 90 | 1009.4 |
| 20260508234518 | 49 | 34 | 0.0 | 0.0 | 0.00 | 0.00 | 0.00 | 90 | 1009.3 |
| 20260508234015 | 49 | 45 | 0.0 | 0.0 | 0.00 | 0.00 | 0.00 | 89 | 1009.4 |
| 20260508233515 | 49 | 65 | 0.0 | 0.0 | 0.00 | 0.00 | 0.00 | 88 | 1009.4 |
| 20260508233011 | 49 | 5 | 2.0 | 2.0 | 0.00 | 0.00 | 0.00 | 88 | 1009.5 |
| 20260508232508 | 49 | 3 | 2.0 | 2.0 | 0.00 | 0.00 | 0.00 | 87 | 1009.5 |
| 20260508232005 | 49 | 1 | 2.0 | 2.0 | 0.00 | 0.00 | 0.00 | 87 | 1009.5 |
| 20260508231503 | 50 | 5 | 2.0 | 2.0 | 0.00 | 0.00 | 0.00 | 88 | 1009.4 |
| 20260508231000 | 50 | 341 | 1.0 | 2.0 | 0.00 | 0.00 | 0.00 | 87 | 1009.4 |
| 20260508230456 | 50 | 10 | 1.0 | 2.0 | 0.00 | 0.00 | 0.00 | 86 | 1009.5 |
| 20260508225953 | 50 | 292 | 3.0 | 3.0 | 0.00 | 0.00 | 0.00 | 87 | 1009.4 |
| 20260508225450 | 50 | 340 | 2.0 | 2.0 | 0.00 | 0.00 | 0.00 | 86 | 1009.4 |
| 20260508224947 | 50 | 350 | 1.0 | 2.0 | 0.00 | 0.00 | 0.00 | 86 | 1009.5 |
| 20260508224444 | 50 | 336 | 2.0 | 2.0 | 0.00 | 0.00 | 0.00 | 87 | 1009.7 |
| 20260508223942 | 50 | 8 | 1.0 | 2.0 | 0.00 | 0.00 | 0.00 | 87 | 1009.5 |
| 20260508223440 | 50 | 1 | 2.0 | 2.0 | 0.00 | 0.00 | 0.00 | 86 | 1009.6 |
| 20260508222936 | 50 | 316 | 1.0 | 2.0 | 0.00 | 0.00 | 0.00 | 84 | 1009.3 |
| 20260508222434 | 51 | 340 | 3.0 | 3.0 | 0.00 | 0.00 | 0.00 | 82 | 1009.6 |
| 20260508221930 | 51 | 289 | 2.0 | 3.0 | 0.00 | 0.00 | 0.00 | 81 | 1009.3 |
| 20260508221426 | 52 | 3 | 1.0 | 2.0 | 0.00 | 0.00 | 0.00 | 80 | 1009.2 |
| 20260508220923 | 52 | 22 | 3.0 | 4.0 | 0.00 | 0.00 | 0.00 | 78 | 1009.3 |
| 20260508220419 | 52 | 321 | 4.0 | 4.0 | 0.00 | 0.00 | 0.00 | 76 | 1009.3 |
| 20260508215915 | 52 | 4 | 4.0 | 4.0 | 0.00 | 0.00 | 0.00 | 77 | 1009.2 |
| 20260508215413 | 52 | 20 | 4.0 | 4.0 | 0.00 | 0.00 | 0.00 | 78 | 1009.2 |
| 20260508214909 | 52 | 258 | 1.0 | 2.0 | 0.00 | 0.00 | 0.00 | 78 | 1009.2 |
| 20260508214407 | 52 | 326 | 2.0 | 3.0 | 0.00 | 0.00 | 0.00 | 81 | 1009.4 |
| 20260508213903 | 51 | 279 | 4.0 | 4.0 | 0.00 | 0.00 | 0.00 | 81 | 1009.4 |
| 20260508213400 | 51 | 338 | 3.0 | 3.0 | 0.00 | 0.00 | 0.00 | 79 | 1009.4 |
| 20260508212855 | 51 | 6 | 3.0 | 3.0 | 0.00 | 0.00 | 0.00 | 80 | 1009.4 |
| 20260508212353 | 51 | 313 | 4.0 | 7.0 | 0.00 | 0.00 | 0.00 | 80 | 1009.2 |
| 20260508211848 | 52 | 27 | 4.0 | 7.0 | 0.00 | 0.00 | 0.00 | 79 | 1009.2 |
| 20260508211344 | 52 | 236 | 3.0 | 3.0 | 0.00 | 0.00 | 0.00 | 78 | 1009.3 |
| 20260508210842 | 53 | 320 | 4.0 | 4.0 | 0.00 | 0.00 | 0.00 | 75 | 1009.3 |
| 20260508210338 | 53 | 295 | 4.0 | 4.0 | 0.00 | 0.00 | 0.00 | 74 | 1009.6 |
| 20260508205835 | 53 | 300 | 6.0 | 8.0 | 0.00 | 0.00 | 0.00 | 73 | 1009.1 |
| 20260508205332 | 53 | 270 | 3.0 | 3.0 | 0.00 | 0.00 | 0.00 | 74 | 1009.2 |
| 20260508204828 | 53 | 287 | 4.0 | 4.0 | 0.00 | 0.00 | 0.00 | 74 | 1009.5 |
| 20260508204325 | 53 | 300 | 11.0 | 14.0 | 0.00 | 0.00 | 0.00 | 72 | 1009.3 |
| 20260508203821 | 53 | 345 | 3.0 | 3.0 | 0.00 | 0.00 | 0.00 | 74 | 1009.6 |
| 20260508203317 | 53 | 294 | 4.0 | 7.0 | 0.00 | 0.00 | 0.00 | 72 | 1009.4 |
| 20260508202813 | 53 | 279 | 4.0 | 7.0 | 0.00 | 0.00 | 0.00 | 71 | 1009.5 |
| 20260508202311 | 53 | 309 | 5.0 | 6.0 | 0.00 | 0.00 | 0.00 | 70 | 1009.5 |
| 20260508201808 | 54 | 20 | 6.0 | 7.0 | 0.00 | 0.00 | 0.00 | 69 | 1009.6 |
| 20260508201304 | 55 | 289 | 4.0 | 6.0 | 0.00 | 0.00 | 0.00 | 68 | 1009.6 |
| 20260508200801 | 55 | 129 | 2.0 | 3.0 | 0.00 | 0.00 | 0.00 | 67 | 1009.4 |
| 20260508200257 | 55 | 286 | 4.0 | 6.0 | 0.00 | 0.00 | 0.00 | 66 | 1009.4 |
| 20260508195753 | 55 | 283 | 2.0 | 3.0 | 0.00 | 0.00 | 0.00 | 68 | 1009.3 |
| 20260508195250 | 55 | 336 | 2.0 | 3.0 | 0.00 | 0.00 | 0.00 | 68 | 1009.4 |
| 20260508194747 | 54 | 338 | 5.0 | 9.0 | 0.00 | 0.00 | 0.00 | 67 | 1009.5 |
| 20260508194244 | 54 | 359 | 6.0 | 7.0 | 0.00 | 0.00 | 0.00 | 69 | 1009.6 |
| 20260508193741 | 54 | 298 | 5.0 | 6.0 | 0.00 | 0.00 | 0.00 | 68 | 1009.6 |
| 20260508193237 | 54 | 276 | 3.0 | 4.0 | 0.00 | 0.00 | 0.00 | 70 | 1009.7 |
| 20260508192734 | 54 | 281 | 8.0 | 9.0 | 0.00 | 0.00 | 0.00 | 68 | 1009.7 |
| 20260508192231 | 54 | 309 | 5.0 | 7.0 | 0.00 | 0.00 | 0.00 | 71 | 1009.6 |
| 20260508191728 | 56 | 294 | 8.0 | 9.0 | 0.00 | 0.00 | 0.00 | 66 | 1009.6 |
| 20260508191225 | 56 | 300 | 4.0 | 6.0 | 0.00 | 0.00 | 0.00 | 62 | 1009.2 |
| 20260508190722 | 56 | 333 | 7.0 | 8.0 | 0.00 | 0.00 | 0.00 | 60 | 1009.5 |
| 20260508190218 | 57 | 309 | 4.0 | 8.0 | 0.00 | 0.00 | 0.00 | 60 | 1009.3 |
| 20260508185715 | 57 | 5 | 2.0 | 3.0 | 0.00 | 0.00 | 0.00 | 59 | 1009.4 |
| 20260508185213 | 56 | 5 | 7.0 | 11.0 | 0.00 | 0.00 | 0.00 | 59 | 1009.5 |
| 20260508184710 | 56 | 338 | 5.0 | 6.0 | 0.00 | 0.00 | 0.00 | 60 | 1009.4 |
| 20260508184207 | 57 | 295 | 2.0 | 2.0 | 0.00 | 0.00 | 0.00 | 60 | 1009.6 |
| 20260508183703 | 57 | 326 | 2.0 | 4.0 | 0.00 | 0.00 | 0.00 | 58 | 1009.6 |
| 20260508183159 | 56 | 326 | 6.0 | 8.0 | 0.00 | 0.00 | 0.00 | 60 | 1009.6 |
| 20260508182655 | 55 | 315 | 4.0 | 6.0 | 0.00 | 0.00 | 0.00 | 59 | 1009.6 |
| 20260508182152 | 55 | 316 | 10.0 | 16.0 | 0.00 | 0.00 | 0.00 | 59 | 1009.4 |
| 20260508181648 | 56 | 261 | 4.0 | 4.0 | 0.00 | 0.00 | 0.00 | 58 | 1009.5 |
| 20260508181145 | 56 | 345 | 3.0 | 4.0 | 0.00 | 0.00 | 0.00 | 58 | 1009.5 |
| 20260508180642 | 57 | 345 | 2.0 | 3.0 | 0.00 | 0.00 | 0.00 | 53 | 1009.3 |
| 20260508180139 | 57 | 7 | 8.0 | 13.0 | 0.00 | 0.00 | 0.00 | 53 | 1009.1 |
| 20260508175635 | 58 | 310 | 5.0 | 6.0 | 0.00 | 0.00 | 0.00 | 53 | 1009.4 |
| 20260508175132 | 57 | 310 | 4.0 | 4.0 | 0.00 | 0.00 | 0.00 | 53 | 1009.3 |
| 20260508174630 | 58 | 40 | 1.0 | 2.0 | 0.00 | 0.00 | 0.00 | 53 | 1009.5 |
| 20260508174126 | 59 | 318 | 3.0 | 3.0 | 0.00 | 0.00 | 0.00 | 51 | 1009.5 |
| 20260508173623 | 59 | 310 | 5.0 | 8.0 | 0.00 | 0.00 | 0.00 | 50 | 1009.8 |
| 20260508173119 | 59 | 240 | 5.0 | 6.0 | 0.00 | 0.00 | 0.00 | 50 | 1009.6 |
| 20260508172617 | 60 | 304 | 7.0 | 10.0 | 0.00 | 0.00 | 0.00 | 52 | 1009.9 |
| 20260508172113 | 60 | 332 | 2.0 | 3.0 | 0.00 | 0.00 | 0.00 | 50 | 1010.2 |
| 20260508171610 | 59 | 300 | 5.0 | 7.0 | 0.00 | 0.00 | 0.00 | 55 | 1009.8 |
| 20260508171106 | 57 | 298 | 4.0 | 4.0 | 0.00 | 0.00 | 0.00 | 54 | 1010.0 |
| 20260508170604 | 57 | 343 | 4.0 | 7.0 | 0.00 | 0.00 | 0.00 | 55 | 1010.0 |
| 20260508170101 | 59 | 321 | 5.0 | 7.0 | 0.00 | 0.00 | 0.00 | 55 | 1010.3 |
| 20260508165558 | 57 | 291 | 6.0 | 7.0 | 0.00 | 0.00 | 0.00 | 55 | 1010.0 |
| 20260508165055 | 56 | 20 | 3.0 | 3.0 | 0.00 | 0.00 | 0.00 | 56 | 1010.4 |
| 20260508164551 | 55 | 329 | 2.0 | 3.0 | 0.00 | 0.00 | 0.00 | 59 | 1010.4 |
| 20260508164048 | 55 | 181 | 2.0 | 3.0 | 0.00 | 0.00 | 0.00 | 59 | 1010.9 |
| 20260508163546 | 55 | 231 | 4.0 | 4.0 | 0.00 | 0.00 | 0.00 | 58 | 1010.5 |
| 20260508163042 | 56 | 336 | 4.0 | 4.0 | 0.00 | 0.00 | 0.00 | 57 | 1010.5 |
| 20260508162539 | 57 | 272 | 3.0 | 4.0 | 0.00 | 0.00 | 0.00 | 59 | 1010.6 |
| 20260508162037 | 56 | 294 | 7.0 | 9.0 | 0.00 | 0.00 | 0.00 | 58 | 1010.5 |
| 20260508161533 | 58 | 335 | 10.0 | 10.0 | 0.00 | 0.00 | 0.00 | 55 | 1010.7 |
| 20260508161030 | 57 | 85 | 1.0 | 2.0 | 0.00 | 0.00 | 0.00 | 58 | 1010.6 |
| 20260508160529 | 57 | 335 | 4.0 | 4.0 | 0.00 | 0.00 | 0.00 | 57 | 1010.7 |
| 20260508160025 | 55 | 323 | 3.0 | 3.0 | 0.00 | 0.00 | 0.00 | 58 | 1010.5 |
| 20260508155522 | 56 | 290 | 6.0 | 8.0 | 0.00 | 0.00 | 0.00 | 57 | 1010.6 |
| 20260508155019 | 55 | 310 | 8.0 | 9.0 | 0.00 | 0.00 | 0.00 | 59 | 1010.9 |
| 20260508154517 | 55 | 309 | 7.0 | 11.0 | 0.00 | 0.00 | 0.00 | 59 | 1010.8 |
| 20260508154013 | 55 | 45 | 4.0 | 7.0 | 0.00 | 0.00 | 0.00 | 58 | 1010.9 |
| 20260508153510 | 55 | 328 | 4.0 | 7.0 | 0.00 | 0.00 | 0.00 | 60 | 1010.9 |
| 20260508153006 | 53 | 5 | 2.0 | 2.0 | 0.00 | 0.00 | 0.00 | 59 | 1010.8 |
| 20260508152503 | 55 | 327 | 4.0 | 6.0 | 0.00 | 0.00 | 0.00 | 58 | 1010.8 |
| 20260508151959 | 55 | 273 | 4.0 | 6.0 | 0.00 | 0.00 | 0.00 | 57 | 1011.0 |
| 20260508151456 | 55 | 301 | 4.0 | 4.0 | 0.00 | 0.00 | 0.00 | 59 | 1010.6 |
| 20260508150952 | 54 | 359 | 5.0 | 7.0 | 0.00 | 0.00 | 0.00 | 58 | 1010.9 |
| 20260508150449 | 54 | 306 | 6.0 | 7.0 | 0.00 | 0.00 | 0.00 | 59 | 1010.8 |
| 20260508145944 | 54 | 20 | 5.0 | 7.0 | 0.00 | 0.00 | 0.00 | 56 | 1010.8 |
| 20260508145442 | 54 | 295 | 7.0 | 9.0 | 0.00 | 0.00 | 0.00 | 57 | 1010.7 |
| 20260508144938 | 54 | 30 | 4.0 | 4.0 | 0.00 | 0.00 | 0.00 | 58 | 1010.9 |
| 20260508144436 | 52 | 324 | 2.0 | 3.0 | 0.00 | 0.00 | 0.00 | 64 | 1010.9 |
| 20260508143934 | 53 | 314 | 4.0 | 4.0 | 0.00 | 0.00 | 0.00 | 61 | 1010.9 |
| 20260508143431 | 52 | 331 | 7.0 | 8.0 | 0.00 | 0.00 | 0.00 | 60 | 1011.1 |
| 20260508142927 | 52 | 3 | 4.0 | 6.0 | 0.00 | 0.00 | 0.00 | 60 | 1011.0 |
| 20260508142425 | 51 | 137 | 3.0 | 3.0 | 0.00 | 0.00 | 0.00 | 63 | 1011.0 |
| 20260508141921 | 50 | 296 | 3.0 | 4.0 | 0.00 | 0.00 | 0.00 | 65 | 1010.7 |
| 20260508141417 | 51 | 280 | 6.0 | 8.0 | 0.00 | 0.00 | 0.00 | 65 | 1010.9 |
| 20260508140915 | 50 | 298 | 4.0 | 4.0 | 0.00 | 0.00 | 0.00 | 66 | 1011.0 |
| 20260508140412 | 49 | 245 | 3.0 | 4.0 | 0.00 | 0.00 | 0.00 | 67 | 1010.8 |
| 20260508135907 | 49 | 14 | 3.0 | 4.0 | 0.00 | 0.00 | 0.00 | 65 | 1011.0 |
| 20260508135404 | 49 | 307 | 3.0 | 3.0 | 0.00 | 0.00 | 0.00 | 67 | 1011.2 |
| 20260508134901 | 50 | 260 | 3.0 | 4.0 | 0.00 | 0.00 | 0.00 | 66 | 1011.1 |
| 20260508134357 | 50 | 27 | 4.0 | 4.0 | 0.00 | 0.00 | 0.00 | 66 | 1011.0 |
| 20260508133854 | 50 | 277 | 4.0 | 6.0 | 0.00 | 0.00 | 0.00 | 66 | 1010.9 |
| 20260508133352 | 50 | 277 | 4.0 | 6.0 | 0.00 | 0.00 | 0.00 | 66 | 1010.9 |
| 20260508132848 | 51 | 337 | 5.0 | 6.0 | 0.00 | 0.00 | 0.00 | 65 | 1010.8 |
| 20260508132346 | 50 | 331 | 12.0 | 16.0 | 0.00 | 0.00 | 0.00 | 63 | 1010.9 |
| 20260508131843 | 50 | 315 | 5.0 | 6.0 | 0.00 | 0.00 | 0.00 | 65 | 1010.9 |
| 20260508131338 | 50 | 316 | 10.0 | 13.0 | 0.00 | 0.00 | 0.00 | 65 | 1011.1 |
| 20260508130835 | 49 | 298 | 5.0 | 7.0 | 0.00 | 0.00 | 0.00 | 66 | 1010.9 |
| 20260508130332 | 48 | 282 | 4.0 | 4.0 | 0.00 | 0.00 | 0.00 | 67 | 1011.1 |
| 20260508125828 | 48 | 340 | 7.0 | 9.0 | 0.00 | 0.00 | 0.00 | 65 | 1010.8 |
| 20260508125325 | 47 | 352 | 7.0 | 9.0 | 0.00 | 0.00 | 0.00 | 67 | 1011.1 |
| 20260508124823 | 47 | 278 | 4.0 | 4.0 | 0.00 | 0.00 | 0.00 | 67 | 1010.8 |
| 20260508124319 | 47 | 290 | 3.0 | 4.0 | 0.00 | 0.00 | 0.00 | 68 | 1010.9 |